Location: Fontevrault
(47.1823°N, 0.0493°E)
Time: 17:37:41
(UTC+00:00)

Cosmos 1725 Rocket - Pass Details

Date: 30 October 2021
Orbit: 961 x 991 km, 82.9° (Epoch: 27 November)

Event Time Altitude Azimuth Distance (km) Brightness Sun altitude
Rises 20:04:54 0° 207° (SSW) 3,656 7.1 -34.0°
Reaches altitude 10° 20:07:32 10° 214° (SW) 2,709 6.5 -34.5°
Maximum altitude 20:13:26 45° 286° (WNW) 1,301 4.9 -35.4°
Drops below altitude 10° 20:19:21 10° 358° (N) 2,711 6.5 -36.4°
Sets 20:21:59 0° 5° (N) 3,660 7.2 -36.8°
